Regional Weather Roundup
Issued by NWS

Home | Current Version | Previous Version | Graphics & Text | Print | Product List | Glossary On
Versions: 1 2 3 4 5 6 7 8 9 10 11 12 13 14 15 16 17 18 19 20 21 22 23 24 25 26 27 28 29 30 31 32 33 34 35 36 37 38 39 40 41 42 43 44 45 46 47
000
ASUS45 KBOU 201810
RWRCO

WEATHER ROUNDUP FOR COLORADO
NATIONAL WEATHER SERVICE DENVER/BOULDER CO
1200 PM MDT FRI APR 20 2018

NOTE: "FAIR" INDICATES FEW OR NO CLOUDS BELOW 12000 FEET WITH NO
SIGNIFICANT WEATHER AND/OR OBSTRUCTIONS TO VISIBILITY.

COZ001>005-013-030-031-201900-
...NORTHWEST COLORADO...

CITY           SKY/WX    TMP DP  RH WIND       PRES   REMARKS
CRAIG          LGT SNOW  35  34  96 SW8       29.91F FOG     WCI  29
HAYDEN         CLOUDY    37  35  92 W12       29.90F
MEEKER         LGT RAIN  41  34  76 SW5       29.91R
RANGELY        DRIZZLE   44  36  73 E10G17    29.93R
RABBIT EARS PA FOG       30  30 100 W8G20     29.93F VSB 1/4 WCI  23
STEAMBOAT SPGS CLOUDY    36  35  96 CALM      29.88F
WALDEN         CLOUDY    45  23  42 N18G26    29.87S
$$

COZ006>008-011-201900-
...WEST CENTRAL VALLEYS...

CITY           SKY/WX    TMP DP  RH WIND       PRES   REMARKS
GRAND JUNCTION CLOUDY    51  24  34 E9        29.88S
MONTROSE       FAIR      44  28  53 E9G17     29.94S
EAGLE          CLOUDY    42  34  73 CALM      29.88F
RIFLE          LGT RAIN  46  35  65 W22G29    29.85F
DELTA          DRIZZLE   44  30  57 N17G24    29.93R
NUCLA          FAIR      50   7  17 SW6G22    29.93R
$$

COZ017>023-064>068-201900-
...SOUTHWEST COLORADO...

CITY           SKY/WX    TMP DP  RH WIND       PRES   REMARKS
DURANGO        PTSUNNY   45   9  23 SW16G25   29.93R
CORTEZ         PTSUNNY   44  21  40 NW7       29.95R
PAGOSA SPRINGS CLOUDY    33  27  77 CALM      29.97R
TELLURIDE      FAIR      31  17  56 NE3       29.97S
WOLF CREEK PAS HVY SNOW  14  14 100 SW18      29.99R VSB 1/4 WCI  -3
$$

COZ009-010-012-014-032>034-037-058>063-201900-
...CENTRAL COLORADO...

CITY           SKY/WX    TMP DP  RH WIND       PRES   REMARKS
ASPEN          CLOUDY    37  31  78 VRB3      29.85F
BUENA VISTA    LGT SNOW  32  31  96 SE8       29.93S VSB 3/4 WCI  25
COPPER MTN     NOT AVBL
BERTHOUD PASS  CLOUDY    23  14  68 S20G32    29.99F WCI   8
COTTONWOOD PAS HVY SNOW  34  32  93 SE12      29.93F VSB<1/4 WCI  25
GUNNISON       LGT RAIN  39  32  76 SW12      29.86S
GRANBY         MOCLDY    48  30  50 E5        29.85S
KREMMLING      FAIR      55  32  41 N8G16     29.84F
LEADVILLE      CLOUDY    30  30 100 S10       29.88F WCI  21
MONARCH PASS   CLOUDY    21  21 100 E6        30.05R WCI  14
SALIDA         CLOUDY    33  32  96 SE9       30.01S VSB 1/4 WCI  26
SUNLIGHT       FOG       28  27  93 N5        29.95F VSB<1/4 WCI  23
WILKERSON PASS SNOW      28  27  93 S7G16     30.00S VSB 1/4 WCI  21
$$

COZ069>075-201900-
...SAN LUIS VALLEY/SANGRE DE CRISTO MOUNTAINS...

CITY           SKY/WX    TMP DP  RH WIND       PRES   REMARKS
ALAMOSA        CLOUDY    36  34  92 SE14      29.92F
DEL NORTE      LGT SNOW  34  29  82 W5        29.93R WCI  30
LA VETA PASS   HVY SNOW  28  27  93 SW17G25   30.04S VSB<1/4 WCI  16
SAGUACHE       NOT AVBL
$$

COZ035-036-038>040-201900-
...NORTHERN COLORADO FRONT RANGE...

CITY           SKY/WX    TMP DP  RH WIND       PRES   REMARKS
DENVER INTL AP FAIR      58  30  34 SE24G33   29.89F
AURORA         PTSUNNY   56  29  35 SE18G25   29.89F
FRONT RANGE AP PTSUNNY   57  30  35 SE17G30   29.92F
ERIE MUNI ARPT CLOUDY    47  28  47 NW14      29.97F
BOULDER MUN AP CLOUDY    45  28  53 W7        29.93F
CENTENNIAL     PTSUNNY   51  31  46 W5G15     29.90S
BROOMFIELD     FLURRIES  46  30  53 W16G22    29.92F
FORT COLLINS   LGT RAIN  52  28  39 SE8       29.93F
LONGMONT       CLOUDY    48  32  52 NW3       29.94F
$$

COZ041-046-047-076>085-087-088-201900-
...PIKES PEAK/PALMER DIVIDE AND SOUTHERN FOOTHILLS...

CITY           SKY/WX    TMP DP  RH WIND       PRES   REMARKS
COLO. SPRINGS  CLOUDY    47  30  51 SE20G30   29.94F
A. F. ACADEMY  CLOUDY    45  27  49 S13       29.93F
SCHRIEVER AFB  NOT AVBL
CHEYENNE MTN   PTSUNNY   41  28  60 CALM      29.89F
ELLICOTT         N/A    N/A N/A N/A SE23G33   29.93F
FALCON         PTSUNNY   47  28  48 SE20G31   29.94F
FORT CARSON    CLOUDY    50  30  47 E16       29.90F
LIMON          PTSUNNY   43  34  70 SE30G47   29.97F
MONUMENT HILL  FAIR      43  28  56 S24G35    29.94F
CANON CITY     PTSUNNY   57  32  38 NE23G37   29.85F
WALSENBURG     NOT AVBL
TRINIDAD       CLOUDY    49  32  52 S17G31    29.92F
$$

COZ042>045-048>051-090-091-201900-
...NORTHEAST COLORADO...

CITY           SKY/WX    TMP DP  RH WIND       PRES   REMARKS
GREELEY ARPT   CLOUDY    58  32  37 SE24G31   29.91F
AKRON          CLOUDY    36  35  96 SE23G32   30.04R
BURLINGTON     LGT RAIN  38  34  85 SE17G31   30.10F
WRAY           LGT RAIN  39  36  87 S20G31    30.14S
YUMA           LGT RAIN  36  34  93 SE23      30.08F
STERLING       NOT AVBL
HOLYOKE        LGT RAIN  41  36  81 SE15      30.15S
FORT MORGAN    CLOUDY    44  33  64 SE23G29   30.01F
$$

COZ086-089-092>099-201900-
...SOUTHEAST COLORADO...

CITY           SKY/WX    TMP DP  RH WIND       PRES   REMARKS
PUEBLO         CLOUDY    58  33  39 E26G36    29.84F
LA JUNTA       CLOUDY    49  31  49 SE28G39   29.97F
LAMAR          CLOUDY    48  31  51 SE17G26   30.05S
SPRINGFIELD      N/A     42  30  62 SE28G37   30.03F
$$




USA.gov is the U.S. government's official web portal to all federal, state and local government web resources and services.